sat.trackr.live / text

‹ back to catalog

STARLINK-31816

NORAD 59742 · 2024-090N

PAYLOAD ACTIVE UNKNOWN

§ Identity

Operator
Country
US
Launch date
2024-05-13
Launch site
AFETR
Launch vehicle
Mass (kg)
RCS (m²)

Purposes: comms

External: N2YO · Heavens-Above · Gunter

§ Orbital elements

Epoch: 2026-09-21T02:49:46.797600Z

Period
94.27 min
Inclination
43.0041°
Eccentricity
0.0001628
Mean motion
15.27544911 rev/d
Perigee alt
482.0 km
Apogee alt
484.3 km
Semi-major
6,861.3 km
B*
2.5374e-4
RAAN
160.1997°
Arg perigee
251.4798°
Mean anomaly
108.5877°
Rev number
13,330

§ Raw data

STARLINK-318161 59742U 24090N   26264.11790275  .00006719  00000+0  25374-3 0  99902 59742  43.0041 160.1997 0001628 251.4798 108.5877 15.27544911133302

JSON: /api/v1/satellites/59742 · /tle

For live sub-satellite position, see the globe view (requires WebGL).

§ Visibility from observer

Set your observer location to see the next 7 days of passes ≥ 10°. The values pass through the URL so the page stays shareable.

No JS? Fill the form by hand. The geolocation button needs JavaScript.